DAL213 KRIC-KEWR

Flight info

Callsign DAL213
Flight time 0h 51m
Altitude 31000
Route LUCYL6 LUCYL HYTRA PHLBO4
Aircraft A359/H-SDE2E3GHIJ3J4J5LM1ORWXY/LB1D1

Departure

Time 2026-05-06 20:24
Airport Richmond International Airport (KRIC)

Arrival

Time 2026-05-06 21:15
Airport Newark Liberty International Airport (KEWR)
Time Latitude Longitude Altitude Speed Heading
2026-05-06 20:01 37.50729 -77.33096 179 ft 0 kts 255°
2026-05-06 20:13 37.50726 -77.33097 179 ft 4 kts 242°
2026-05-06 20:13 37.50732 -77.33074 179 ft 4 kts 265°
2026-05-06 20:13 37.50729 -77.33044 179 ft 4 kts 302°
2026-05-06 20:13 37.50711 -77.33021 179 ft 4 kts 328°
2026-05-06 20:14 37.50700 -77.33012 179 ft 1 kts 328°
2026-05-06 20:14 37.50699 -77.33011 179 ft 0 kts 328°
2026-05-06 20:18 37.50701 -77.33011 179 ft 2 kts 341°
2026-05-06 20:18 37.50736 -77.32974 179 ft 9 kts 46°
2026-05-06 20:18 37.50800 -77.32926 179 ft 12 kts 21°
2026-05-06 20:18 37.50887 -77.32893 179 ft 15 kts 16°
2026-05-06 20:19 37.50996 -77.32861 179 ft 19 kts 14°
2026-05-06 20:19 37.51167 -77.32810 179 ft 27 kts 13°
2026-05-06 20:19 37.51357 -77.32754 179 ft 29 kts 13°
2026-05-06 20:19 37.51546 -77.32695 179 ft 14 kts 13°
2026-05-06 20:20 37.51616 -77.32669 179 ft 8 kts 30°
2026-05-06 20:20 37.51637 -77.32621 179 ft 1 kts 79°
2026-05-06 20:20 37.51638 -77.32593 179 ft 0 kts 88°
2026-05-06 20:23 37.51638 -77.32529 179 ft 17 kts 90°
2026-05-06 20:23 37.51597 -77.32473 180 ft 8 kts 154°
2026-05-06 20:23 37.51543 -77.32474 181 ft 10 kts 191°
2026-05-06 20:23 37.51290 -77.32547 181 ft 84 kts 194°
2026-05-06 20:24 37.50514 -77.32792 181 ft 169 kts 195°
2026-05-06 20:24 37.49156 -77.33094 863 ft 203 kts 190°
2026-05-06 20:24 37.47701 -77.32941 1802 ft 233 kts 161°
2026-05-06 20:24 37.46400 -77.31631 2339 ft 248 kts 126°
2026-05-06 20:25 37.45885 -77.29533 2490 ft 259 kts 88°
2026-05-06 20:25 37.46289 -77.27290 2676 ft 266 kts 71°
2026-05-06 20:25 37.46632 -77.24987 2832 ft 272 kts 81°
2026-05-06 20:25 37.46872 -77.22648 3280 ft 266 kts 83°
2026-05-06 20:26 37.47118 -77.20358 3984 ft 267 kts 81°
2026-05-06 20:26 37.47414 -77.17949 4732 ft 294 kts 80°
2026-05-06 20:26 37.47849 -77.15419 5576 ft 300 kts 70°
2026-05-06 20:26 37.48804 -77.13191 6693 ft 282 kts 54°
2026-05-06 20:27 37.49882 -77.11265 7932 ft 258 kts 53°
2026-05-06 20:27 37.50873 -77.09528 9171 ft 230 kts 53°
2026-05-06 20:27 37.51767 -77.07956 10123 ft 215 kts 53°
2026-05-06 20:27 37.52658 -77.06390 10889 ft 225 kts 53°
2026-05-06 20:28 37.53596 -77.04747 11643 ft 241 kts 53°
2026-05-06 20:28 37.54613 -77.02951 12381 ft 258 kts 53°
2026-05-06 20:28 37.55674 -77.01069 13124 ft 274 kts 53°
2026-05-06 20:28 37.56815 -76.99043 13868 ft 290 kts 53°
2026-05-06 20:29 37.58004 -76.96930 14600 ft 303 kts 53°
2026-05-06 20:29 37.59262 -76.94697 15059 ft 316 kts 49°
2026-05-06 20:29 37.60556 -76.92405 15800 ft 326 kts 49°
2026-05-06 20:29 37.61873 -76.90063 16526 ft 335 kts 49°
2026-05-06 20:30 37.63245 -76.87618 17289 ft 343 kts 49°
2026-05-06 20:30 37.66038 -76.82633 18734 ft 355 kts 49°
2026-05-06 20:30 37.67471 -76.80069 19430 ft 358 kts 49°
2026-05-06 20:31 37.68914 -76.77489 20150 ft 360 kts 49°
2026-05-06 20:31 37.70421 -76.74975 20864 ft 357 kts 43°
2026-05-06 20:31 37.72194 -76.72847 21616 ft 346 kts 30°
2026-05-06 20:31 37.74202 -76.71271 22383 ft 333 kts 16°
2026-05-06 20:32 37.76316 -76.70279 23166 ft 316 kts
2026-05-06 20:32 37.78421 -76.69823 23893 ft 300 kts 353°
2026-05-06 20:32 37.80461 -76.69649 24574 ft 289 kts 350°
2026-05-06 20:32 37.82437 -76.69525 25273 ft 279 kts 349°
2026-05-06 20:33 37.84351 -76.69404 25908 ft 271 kts 349°
2026-05-06 20:33 37.86217 -76.69289 26399 ft 269 kts 348°
2026-05-06 20:33 37.88057 -76.69175 26819 ft 268 kts 348°
2026-05-06 20:33 37.89907 -76.69057 27223 ft 269 kts 348°
2026-05-06 20:34 37.91775 -76.68932 27570 ft 270 kts 347°
2026-05-06 20:34 37.93664 -76.68809 27892 ft 272 kts 347°
2026-05-06 20:34 37.95570 -76.68682 28210 ft 274 kts 347°
2026-05-06 20:34 37.97484 -76.68553 28513 ft 277 kts 347°
2026-05-06 20:35 37.99411 -76.68422 28815 ft 279 kts 347°
2026-05-06 20:35 38.01357 -76.68284 29100 ft 282 kts 348°
2026-05-06 20:35 38.03341 -76.68019 29374 ft 291 kts 353°
2026-05-06 20:35 38.05360 -76.67499 29630 ft 302 kts
2026-05-06 20:36 38.07383 -76.66680 29883 ft 313 kts
2026-05-06 20:36 38.09402 -76.65530 30101 ft 324 kts 15°
2026-05-06 20:36 38.11381 -76.64034 30228 ft 338 kts 23°
2026-05-06 20:36 38.13279 -76.62163 30371 ft 353 kts 30°
2026-05-06 20:37 38.15073 -76.59968 30490 ft 363 kts 35°
2026-05-06 20:37 38.16833 -76.57667 30615 ft 370 kts 36°
2026-05-06 20:37 38.18640 -76.55287 30721 ft 378 kts 36°
2026-05-06 20:37 38.20454 -76.52903 30834 ft 385 kts 36°
2026-05-06 20:38 38.22344 -76.50428 30877 ft 396 kts 36°
2026-05-06 20:38 38.24295 -76.47880 30891 ft 408 kts 37°
2026-05-06 20:38 38.26327 -76.45267 30890 ft 419 kts 34°
2026-05-06 20:38 38.28613 -76.42957 30889 ft 420 kts 22°
2026-05-06 20:39 38.30298 -76.41777 30887 ft 417 kts 13°
2026-05-06 20:39 38.33029 -76.40609 30920 ft 413 kts
2026-05-06 20:39 38.35884 -76.39934 30892 ft 423 kts 356°
2026-05-06 20:39 38.38836 -76.39329 30883 ft 435 kts 357°
2026-05-06 20:40 38.42734 -76.38498 30897 ft 428 kts 357°
2026-05-06 20:40 38.47796 -76.37442 30885 ft 452 kts 358°
2026-05-06 20:40 38.50946 -76.36780 30883 ft 466 kts 358°
2026-05-06 20:41 38.54202 -76.36088 30881 ft 479 kts 358°
2026-05-06 20:41 38.57496 -76.35384 30886 ft 493 kts 358°
2026-05-06 20:41 38.60908 -76.34650 30876 ft 500 kts 358°
2026-05-06 20:42 38.67782 -76.33154 30881 ft 501 kts 358°
2026-05-06 20:42 38.74629 -76.31671 30882 ft 500 kts 358°
2026-05-06 20:43 38.81476 -76.30191 30872 ft 500 kts 358°
2026-05-06 20:43 38.88303 -76.28715 30885 ft 499 kts 358°
2026-05-06 20:44 38.95092 -76.27247 30878 ft 499 kts 358°
2026-05-06 20:44 39.01927 -76.25763 30888 ft 498 kts 358°
2026-05-06 20:45 39.08752 -76.24280 30870 ft 497 kts 358°
2026-05-06 20:45 39.15538 -76.21960 30879 ft 527 kts 16°
2026-05-06 20:45 39.18663 -76.19318 30877 ft 548 kts 31°
2026-05-06 20:46 39.21465 -76.15982 30899 ft 555 kts 35°
2026-05-06 20:46 39.24226 -76.12555 30748 ft 555 kts 35°
2026-05-06 20:46 39.26996 -76.09182 30301 ft 554 kts 34°
2026-05-06 20:46 39.29781 -76.05843 29583 ft 557 kts 34°
2026-05-06 20:47 39.32645 -76.02443 28713 ft 561 kts 34°
2026-05-06 20:47 39.35532 -75.99024 27897 ft 559 kts 34°
2026-05-06 20:47 39.38388 -75.95642 27132 ft 555 kts 35°
2026-05-06 20:47 39.41214 -75.92299 26450 ft 552 kts 34°
2026-05-06 20:48 39.44057 -75.88934 25709 ft 548 kts 34°
2026-05-06 20:48 39.46858 -75.85620 24990 ft 544 kts 34°
2026-05-06 20:48 39.49643 -75.82320 24303 ft 540 kts 34°
2026-05-06 20:48 39.52411 -75.79039 23623 ft 536 kts 35°
2026-05-06 20:49 39.55145 -75.75798 22850 ft 531 kts 36°
2026-05-06 20:49 39.57802 -75.72634 22090 ft 512 kts 36°
2026-05-06 20:49 39.60375 -75.69563 21362 ft 496 kts 36°
2026-05-06 20:49 39.62828 -75.66649 20658 ft 496 kts 36°
2026-05-06 20:50 39.65379 -75.63619 20114 ft 491 kts 37°
2026-05-06 20:50 39.67810 -75.60719 19795 ft 481 kts 37°
2026-05-06 20:50 39.70271 -75.57782 19486 ft 477 kts 37°
2026-05-06 20:50 39.72708 -75.54848 19060 ft 476 kts 37°
2026-05-06 20:51 39.75149 -75.51905 18489 ft 472 kts 38°
2026-05-06 20:51 39.77488 -75.49073 17898 ft 451 kts 38°
2026-05-06 20:51 39.79748 -75.46334 17266 ft 434 kts 38°
2026-05-06 20:51 39.81941 -75.43687 16646 ft 435 kts 38°
2026-05-06 20:52 39.84162 -75.41007 16011 ft 434 kts 38°
2026-05-06 20:52 39.86376 -75.38328 15399 ft 431 kts 39°
2026-05-06 20:52 39.88514 -75.35739 14819 ft 428 kts 39°
2026-05-06 20:52 39.90675 -75.33119 14236 ft 425 kts 39°
2026-05-06 20:53 39.92846 -75.30485 13657 ft 422 kts 39°
2026-05-06 20:53 39.94978 -75.27896 13118 ft 417 kts 39°
2026-05-06 20:53 39.97017 -75.25414 12749 ft 401 kts 39°
2026-05-06 20:53 39.99002 -75.22985 12396 ft 378 kts 39°
2026-05-06 20:54 40.00865 -75.20712 12062 ft 359 kts 39°
2026-05-06 20:54 40.02657 -75.18529 11687 ft 345 kts 39°
2026-05-06 20:54 40.04396 -75.16414 11338 ft 346 kts 39°
2026-05-06 20:54 40.06158 -75.14270 10996 ft 344 kts 39°
2026-05-06 20:55 40.07879 -75.12167 10868 ft 334 kts 39°
2026-05-06 20:55 40.09522 -75.10147 10855 ft 312 kts 39°
2026-05-06 20:55 40.11059 -75.08260 10865 ft 294 kts 38°
2026-05-06 20:55 40.12551 -75.06440 10863 ft 292 kts 38°
2026-05-06 20:56 40.14041 -75.04629 10922 ft 295 kts 37°
2026-05-06 20:56 40.15536 -75.02807 10731 ft 299 kts 38°
2026-05-06 20:56 40.17065 -75.00937 10280 ft 304 kts 38°
2026-05-06 20:56 40.18633 -74.99017 9794 ft 311 kts 38°
2026-05-06 20:57 40.20228 -74.97061 9268 ft 316 kts 38°
2026-05-06 20:57 40.21812 -74.95112 8737 ft 311 kts 39°
2026-05-06 20:57 40.23371 -74.93188 8270 ft 306 kts 39°
2026-05-06 20:57 40.24908 -74.91294 8016 ft 299 kts 39°
2026-05-06 20:58 40.26318 -74.89520 7986 ft 284 kts 41°
2026-05-06 20:58 40.27672 -74.87618 7991 ft 277 kts 43°
2026-05-06 20:58 40.28952 -74.85777 7985 ft 277 kts 43°
2026-05-06 20:58 40.30259 -74.83918 7987 ft 277 kts 43°
2026-05-06 20:59 40.31552 -74.82085 7986 ft 277 kts 42°
2026-05-06 20:59 40.32854 -74.80250 7987 ft 277 kts 43°
2026-05-06 20:59 40.34165 -74.78397 7988 ft 277 kts 43°
2026-05-06 20:59 40.35472 -74.76552 7982 ft 276 kts 43°
2026-05-06 21:00 40.36765 -74.74727 7979 ft 276 kts 43°
2026-05-06 21:00 40.38075 -74.72880 7979 ft 276 kts 43°
2026-05-06 21:00 40.39385 -74.71034 7980 ft 276 kts 43°
2026-05-06 21:00 40.40710 -74.69211 7983 ft 275 kts 39°
2026-05-06 21:01 40.42191 -74.67659 7979 ft 270 kts 26°
2026-05-06 21:01 40.43855 -74.66610 7969 ft 261 kts 11°
2026-05-06 21:01 40.45594 -74.66011 7959 ft 258 kts
2026-05-06 21:01 40.47305 -74.65554 7959 ft 257 kts
2026-05-06 21:02 40.49055 -74.65108 7961 ft 257 kts
2026-05-06 21:02 40.50783 -74.64658 7963 ft 256 kts
2026-05-06 21:02 40.52540 -74.64193 7958 ft 257 kts
2026-05-06 21:02 40.54293 -74.63734 7960 ft 256 kts
2026-05-06 21:03 40.56063 -74.63285 7945 ft 282 kts
2026-05-06 21:03 40.58059 -74.62764 7936 ft 298 kts
2026-05-06 21:03 40.60103 -74.62214 7952 ft 301 kts
2026-05-06 21:03 40.62159 -74.61660 7950 ft 301 kts
2026-05-06 21:04 40.64209 -74.61105 7952 ft 301 kts
2026-05-06 21:04 40.66267 -74.60547 7952 ft 301 kts
2026-05-06 21:04 40.68322 -74.59990 7954 ft 301 kts
2026-05-06 21:04 40.70377 -74.59435 7953 ft 301 kts
2026-05-06 21:05 40.72430 -74.58880 7958 ft 301 kts
2026-05-06 21:05 40.74481 -74.58326 7968 ft 301 kts
2026-05-06 21:05 40.76535 -74.57772 7958 ft 300 kts
2026-05-06 21:05 40.78556 -74.57230 7970 ft 300 kts
2026-05-06 21:06 40.80600 -74.56679 7973 ft 299 kts
2026-05-06 21:06 40.82622 -74.56132 7973 ft 290 kts
2026-05-06 21:06 40.84536 -74.55579 7973 ft 274 kts
2026-05-06 21:06 40.86215 -74.54436 7976 ft 274 kts 35°
2026-05-06 21:07 40.87356 -74.52406 7887 ft 280 kts 64°
2026-05-06 21:07 40.87895 -74.49930 7439 ft 284 kts 84°
2026-05-06 21:07 40.87934 -74.47363 6845 ft 283 kts 97°
2026-05-06 21:07 40.87618 -74.44820 6258 ft 281 kts 104°
2026-05-06 21:08 40.87197 -74.42304 5619 ft 280 kts 105°
2026-05-06 21:08 40.86773 -74.39797 4989 ft 276 kts 107°
2026-05-06 21:08 40.86394 -74.37379 4364 ft 273 kts 103°
2026-05-06 21:08 40.86194 -74.34897 3746 ft 270 kts 98°
2026-05-06 21:09 40.85978 -74.32463 3252 ft 260 kts 114°
2026-05-06 21:09 40.85001 -74.30653 3101 ft 231 kts 148°
2026-05-06 21:09 40.83861 -74.29269 2995 ft 227 kts 137°
2026-05-06 21:09 40.83172 -74.27394 2989 ft 224 kts 110°
2026-05-06 21:10 40.82845 -74.25439 2952 ft 216 kts 105°
2026-05-06 21:10 40.82562 -74.23516 2973 ft 216 kts 104°
2026-05-06 21:10 40.82271 -74.21560 2783 ft 218 kts 104°
2026-05-06 21:10 40.81948 -74.19604 2344 ft 220 kts 107°
2026-05-06 21:11 40.81636 -74.17700 2056 ft 212 kts 106°
2026-05-06 21:11 40.81343 -74.15861 1975 ft 202 kts 106°
2026-05-06 21:11 40.81025 -74.14052 1959 ft 203 kts 112°
2026-05-06 21:11 40.80511 -74.12324 1960 ft 201 kts 122°
2026-05-06 21:12 40.79745 -74.10818 1969 ft 195 kts 138°
2026-05-06 21:12 40.78643 -74.10014 1957 ft 169 kts 182°
2026-05-06 21:12 40.77675 -74.10463 1857 ft 141 kts 221°
2026-05-06 21:12 40.76890 -74.11201 1634 ft 139 kts 218°
2026-05-06 21:13 40.76103 -74.11897 1420 ft 132 kts 217°
2026-05-06 21:13 40.75339 -74.12523 1254 ft 128 kts 215°
2026-05-06 21:13 40.74524 -74.13052 1029 ft 132 kts 210°
2026-05-06 21:13 40.73715 -74.13594 840 ft 128 kts 211°
2026-05-06 21:14 40.72912 -74.14117 715 ft 130 kts 211°
2026-05-06 21:14 40.72099 -74.14651 518 ft 128 kts 210°
2026-05-06 21:14 40.71298 -74.15167 361 ft 128 kts 210°
2026-05-06 21:14 40.70504 -74.15670 168 ft 126 kts 211°
2026-05-06 21:15 40.69710 -74.16181 44 ft 126 kts 208°
2026-05-06 21:15 40.69025 -74.16620 29 ft 80 kts 206°
2026-05-06 21:15 40.68737 -74.16884 28 ft 38 kts 230°
2026-05-06 21:15 40.68642 -74.17075 29 ft 18 kts 242°
2026-05-06 21:16 40.68639 -74.17194 29 ft 12 kts 296°
2026-05-06 21:16 40.68681 -74.17300 30 ft 15 kts 297°
2026-05-06 21:16 40.68720 -74.17436 29 ft 16 kts 266°
2026-05-06 21:16 40.68649 -74.17518 29 ft 13 kts 197°
2026-05-06 21:17 40.68599 -74.17550 29 ft 8 kts 208°
2026-05-06 21:17 40.68536 -74.17593 29 ft 12 kts 206°
2026-05-06 21:17 40.68439 -74.17655 29 ft 18 kts 206°
2026-05-06 21:17 40.68332 -74.17735 28 ft 15 kts 236°
2026-05-06 21:18 40.68357 -74.17856 28 ft 16 kts 294°
2026-05-06 21:18 40.68373 -74.18001 28 ft 17 kts 253°
2026-05-06 21:18 40.68358 -74.18083 28 ft 6 kts 263°
2026-05-06 21:18 40.68358 -74.18138 28 ft 5 kts 272°
2026-05-06 21:19 40.68359 -74.18171 28 ft 1 kts 275°
2026-05-06 21:19 40.68360 -74.18189 28 ft 2 kts 275°
2026-05-06 21:19 40.68361 -74.18203 28 ft 0 kts 275°
2026-05-06 21:19 40.68362 -74.18209 28 ft 0 kts 275°